Location: Unspecified
(0.0000°N, 0.0000°E)
Time: 03:53:35
(UTC+00:00)

NTS 1 - Pass Details

Date: 19 May 2026
Orbit: 13477 x 13743 km, 124.9° (Epoch: 9 June)

Event Time Altitude Azimuth Distance (km) Brightness Sun altitude
Rises 21:14:43 0° 124° (SE) 18,999 ? -45.7°
Reaches altitude 10° 21:26:27 10° 119° (ESE) 17,897 ? -48.2°
Enters shadow 21:28:46 12° 118° (ESE) 17,681 ? -48.7°
Exits shadow 22:04:31 46° 93° (E) 14,846 ? -56.1°
Maximum altitude 22:30:17 62° 40° (NE) 14,055 ? -61.0°
Drops below altitude 10° 23:31:48 10° 328° (NNW) 17,718 ? -69.2°
Sets 23:42:31 0° 326° (NNW) 18,797 ? -69.8°
